Time,TemperatureF,DewpointF,PressureIn,WindDirection,WindDirectionDegrees,WindSpeedMPH,WindSpeedGustMPH,Humidity,HourlyPrecipIn,Conditions,Clouds,dailyrainin,SoftwareType,DateUTC
2013-10-26 00:05:00,44.7,40.8,29.83,SSW,211,19.0,21.0,86,0.00,,,0.00,Wunderground v.1.15,2013-10-26 04:05:00,
2013-10-26 00:10:00,44.8,40.9,29.82,SW,217,18.0,18.0,86,0.00,,,0.00,Wunderground v.1.15,2013-10-26 04:10:00,
2013-10-26 00:15:00,44.6,40.7,29.82,SSW,211,17.0,22.0,86,0.00,,,0.00,Wunderground v.1.15,2013-10-26 04:15:00,
2013-10-26 00:20:00,44.7,41.4,29.82,SW,227,17.0,17.0,88,0.00,,,0.00,Wunderground v.1.15,2013-10-26 04:20:00,
2013-10-26 00:25:00,44.6,41.3,29.81,SSW,211,17.0,18.0,88,0.00,,,0.00,Wunderground v.1.15,2013-10-26 04:25:00,
2013-10-26 00:35:00,44.5,40.9,29.80,SSW,202,16.0,20.0,87,0.00,,,0.01,Wunderground v.1.15,2013-10-26 04:35:00,
2013-10-26 00:40:00,44.4,41.1,29.80,SW,230,14.0,14.0,88,0.00,,,0.01,Wunderground v.1.15,2013-10-26 04:40:00,
2013-10-26 00:45:00,44.3,40.7,29.79,SW,217,12.0,21.0,87,0.00,,,0.01,Wunderground v.1.15,2013-10-26 04:45:00,
2013-10-26 00:50:00,44.4,41.1,29.78,SW,214,12.0,15.0,88,0.00,,,0.01,Wunderground v.1.15,2013-10-26 04:50:00,
2013-10-26 00:55:00,44.3,41.0,29.78,SW,214,12.0,15.0,88,0.00,,,0.01,Wunderground v.1.15,2013-10-26 04:55:00,
2013-10-26 01:00:00,44.1,40.8,29.77,SSW,202,12.0,15.0,88,0.00,,,0.02,Wunderground v.1.15,2013-10-26 05:00:00,
2013-10-26 01:05:00,44.1,40.8,29.76,SSW,204,12.0,15.0,88,0.00,,,0.02,Wunderground v.1.15,2013-10-26 05:05:00,
2013-10-26 01:15:00,44.5,40.6,29.76,SSW,205,12.0,12.0,86,0.00,,,0.02,Wunderground v.1.15,2013-10-26 05:15:00,
2013-10-26 01:20:00,44.8,40.9,29.76,South,188,15.0,15.0,86,0.00,,,0.02,Wunderground v.1.15,2013-10-26 05:20:00,
2013-10-26 01:30:00,44.6,40.7,29.75,SSW,212,15.0,19.0,86,0.00,,,0.02,Wunderground v.1.15,2013-10-26 05:30:00,
2013-10-26 01:35:00,44.6,40.7,29.75,SSW,205,16.0,19.0,86,0.00,,,0.02,Wunderground v.1.15,2013-10-26 05:35:00,
2013-10-26 01:40:00,44.7,40.8,29.74,SSW,199,16.0,16.0,86,0.00,,,0.02,Wunderground v.1.15,2013-10-26 05:40:00,
2013-10-26 01:45:00,44.7,40.8,29.74,SSW,206,14.0,24.0,86,0.00,,,0.02,Wunderground v.1.15,2013-10-26 05:45:00,
2013-10-26 01:50:00,44.8,40.3,29.73,SSW,203,15.0,15.0,84,0.00,,,0.02,Wunderground v.1.15,2013-10-26 05:50:00,
2013-10-26 01:55:00,45.0,40.5,29.73,SW,225,16.0,16.0,84,0.00,,,0.02,Wunderground v.1.15,2013-10-26 05:55:00,
2013-10-26 02:00:00,45.0,40.8,29.73,SW,218,14.0,14.0,85,0.00,,,0.02,Wunderground v.1.15,2013-10-26 06:00:00,
2013-10-26 02:05:00,45.0,41.1,29.73,SSW,194,13.0,14.0,86,0.00,,,0.02,Wunderground v.1.15,2013-10-26 06:05:00,
2013-10-26 02:15:00,44.8,40.9,29.72,South,186,13.0,14.0,86,0.00,,,0.02,Wunderground v.1.15,2013-10-26 06:15:00,
2013-10-26 02:20:00,44.8,40.9,29.71,SW,215,11.0,13.0,86,0.00,,,0.02,Wunderground v.1.15,2013-10-26 06:20:00,
2013-10-26 02:25:00,44.8,40.9,29.70,SSW,207,10.0,13.0,86,0.00,,,0.02,Wunderground v.1.15,2013-10-26 06:25:00,
2013-10-26 02:30:00,44.9,41.3,29.70,SW,217,11.0,11.0,87,0.00,,,0.03,Wunderground v.1.15,2013-10-26 06:30:00,
2013-10-26 02:35:00,45.2,41.6,29.70,SSW,205,12.0,19.0,87,0.00,,,0.03,Wunderground v.1.15,2013-10-26 06:35:00,
2013-10-26 02:40:00,45.5,41.3,29.69,SSW,211,11.0,18.0,85,0.00,,,0.03,Wunderground v.1.15,2013-10-26 06:40:00,
2013-10-26 02:50:00,46.4,41.8,29.69,SW,221,14.0,14.0,84,0.00,,,0.03,Wunderground v.1.15,2013-10-26 06:50:00,
2013-10-26 02:55:00,46.9,42.0,29.68,SSW,209,13.0,16.0,83,0.00,,,0.03,Wunderground v.1.15,2013-10-26 06:55:00,
2013-10-26 03:00:00,47.6,41.7,29.67,SSW,211,14.0,19.0,80,0.00,,,0.03,Wunderground v.1.15,2013-10-26 07:00:00,
2013-10-26 03:05:00,47.9,41.7,29.67,SW,222,17.0,19.0,79,0.00,,,0.03,Wunderground v.1.15,2013-10-26 07:05:00,
2013-10-26 03:15:00,48.2,42.3,29.67,SSW,203,16.0,20.0,80,0.00,,,0.03,Wunderground v.1.15,2013-10-26 07:15:00,
2013-10-26 03:20:00,48.4,42.2,29.67,SW,236,16.0,16.0,79,0.00,,,0.03,Wunderground v.1.15,2013-10-26 07:20:00,
2013-10-26 03:30:00,48.7,42.5,29.66,WSW,237,14.0,14.0,79,0.00,,,0.03,Wunderground v.1.15,2013-10-26 07:30:00,
2013-10-26 03:35:00,48.9,41.3,29.66,SW,222,14.0,14.0,75,0.00,,,0.03,Wunderground v.1.15,2013-10-26 07:35:00,
2013-10-26 03:40:00,49.0,42.1,29.66,SSW,207,16.0,22.0,77,0.00,,,0.03,Wunderground v.1.15,2013-10-26 07:40:00,
2013-10-26 03:45:00,49.0,42.4,29.65,SW,215,15.0,22.0,78,0.00,,,0.03,Wunderground v.1.15,2013-10-26 07:45:00,
2013-10-26 03:55:00,49.4,41.8,29.65,SW,224,14.0,14.0,75,0.00,,,0.03,Wunderground v.1.15,2013-10-26 07:55:00,
2013-10-26 04:00:00,49.6,41.3,29.64,SW,234,15.0,15.0,73,0.00,,,0.03,Wunderground v.1.15,2013-10-26 08:00:00,
2013-10-26 04:05:00,49.8,42.2,29.64,WSW,242,15.0,20.0,75,0.00,,,0.03,Wunderground v.1.15,2013-10-26 08:05:00,
2013-10-26 04:15:00,50.1,42.5,29.63,SW,225,16.0,16.0,75,0.00,,,0.03,Wunderground v.1.15,2013-10-26 08:15:00,
2013-10-26 04:20:00,50.4,42.8,29.63,WSW,238,16.0,16.0,75,0.00,,,0.03,Wunderground v.1.15,2013-10-26 08:20:00,
2013-10-26 04:30:00,50.6,43.0,29.63,SW,230,16.0,16.0,75,0.00,,,0.03,Wunderground v.1.15,2013-10-26 08:30:00,
2013-10-26 04:35:00,50.8,42.8,29.63,WSW,238,17.0,17.0,74,0.00,,,0.03,Wunderground v.1.15,2013-10-26 08:35:00,
2013-10-26 04:40:00,50.9,42.9,29.63,SW,230,18.0,21.0,74,0.00,,,0.03,Wunderground v.1.15,2013-10-26 08:40:00,
2013-10-26 04:45:00,51.0,43.4,29.62,WSW,257,18.0,21.0,75,0.00,,,0.03,Wunderground v.1.15,2013-10-26 08:45:00,
2013-10-26 04:50:00,50.9,42.9,29.62,SW,229,17.0,19.0,74,0.00,,,0.03,Wunderground v.1.15,2013-10-26 08:50:00,
2013-10-26 05:00:00,51.2,42.8,29.62,SW,234,18.0,18.0,73,0.00,,,0.03,Wunderground v.1.15,2013-10-26 09:00:00,
2013-10-26 05:05:00,51.2,43.2,29.62,SW,235,19.0,22.0,74,0.00,,,0.03,Wunderground v.1.15,2013-10-26 09:05:00,
2013-10-26 05:15:00,51.4,43.7,29.62,WSW,238,19.0,23.0,75,0.00,,,0.03,Wunderground v.1.15,2013-10-26 09:15:00,
2013-10-26 05:20:00,51.6,43.9,29.62,WSW,240,19.0,19.0,75,0.00,,,0.03,Wunderground v.1.15,2013-10-26 09:20:00,
2013-10-26 05:25:00,51.5,43.1,29.62,SW,226,19.0,19.0,73,0.00,,,0.03,Wunderground v.1.15,2013-10-26 09:25:00,
2013-10-26 05:35:00,51.7,43.3,29.62,SW,229,20.0,21.0,73,0.00,,,0.03,Wunderground v.1.15,2013-10-26 09:35:00,
2013-10-26 05:40:00,51.7,43.3,29.62,SW,228,21.0,21.0,73,0.00,,,0.03,Wunderground v.1.15,2013-10-26 09:40:00,
2013-10-26 05:45:00,51.7,43.3,29.62,WSW,241,21.0,21.0,73,0.00,,,0.03,Wunderground v.1.15,2013-10-26 09:45:00,
2013-10-26 05:50:00,51.7,43.7,29.62,WSW,237,21.0,21.0,74,0.00,,,0.03,Wunderground v.1.15,2013-10-26 09:50:00,
2013-10-26 05:55:00,51.7,43.3,29.62,SW,222,22.0,24.0,73,0.00,,,0.03,Wunderground v.1.15,2013-10-26 09:55:00,
2013-10-26 06:05:00,46.2,42.2,29.65,WSW,242,20.0,22.0,86,0.36,,,0.06,Wunderground v.1.15,2013-10-26 10:05:00,
2013-10-26 06:15:00,46.9,42.9,29.64,WSW,237,19.0,22.0,86,0.07,,,0.07,Wunderground v.1.15,2013-10-26 10:15:00,
2013-10-26 06:20:00,47.7,43.4,29.64,WSW,258,18.0,19.0,85,0.04,,,0.07,Wunderground v.1.15,2013-10-26 10:20:00,
2013-10-26 06:25:00,48.2,43.3,29.64,WSW,245,16.0,19.0,83,0.00,,,0.07,Wunderground v.1.15,2013-10-26 10:25:00,
2013-10-26 06:30:00,48.6,42.7,29.64,WSW,249,15.0,15.0,80,0.00,,,0.07,Wunderground v.1.15,2013-10-26 10:30:00,
2013-10-26 06:40:00,49.1,42.2,29.64,WSW,248,16.0,16.0,77,0.00,,,0.07,Wunderground v.1.15,2013-10-26 10:40:00,
2013-10-26 06:45:00,49.2,41.6,29.64,WSW,246,17.0,17.0,75,0.00,,,0.07,Wunderground v.1.15,2013-10-26 10:45:00,
2013-10-26 06:50:00,49.3,42.1,29.64,WSW,240,17.0,17.0,76,0.00,,,0.07,Wunderground v.1.15,2013-10-26 10:50:00,
2013-10-26 06:55:00,49.3,41.0,29.64,WSW,256,16.0,17.0,73,0.00,,,0.07,Wunderground v.1.15,2013-10-26 10:55:00,
2013-10-26 07:00:00,49.3,41.0,29.64,West,268,17.0,17.0,73,0.00,,,0.07,Wunderground v.1.15,2013-10-26 11:00:00,
2013-10-26 07:05:00,49.2,42.3,29.64,WSW,245,16.0,17.0,77,0.00,,,0.07,Wunderground v.1.15,2013-10-26 11:05:00,
2013-10-26 07:15:00,49.0,41.4,29.65,WSW,250,14.0,14.0,75,0.00,,,0.07,Wunderground v.1.15,2013-10-26 11:15:00,
2013-10-26 07:20:00,48.9,41.3,29.65,West,267,15.0,18.0,75,0.00,,,0.07,Wunderground v.1.15,2013-10-26 11:20:00,
2013-10-26 07:25:00,48.7,40.4,29.64,WSW,250,15.0,18.0,73,0.00,,,0.07,Wunderground v.1.15,2013-10-26 11:25:00,
2013-10-26 07:30:00,48.7,40.4,29.64,WSW,248,15.0,15.0,73,0.00,,,0.07,Wunderground v.1.15,2013-10-26 11:30:00,
2013-10-26 07:35:00,48.7,40.1,29.65,West,266,13.0,15.0,72,0.00,,,0.07,Wunderground v.1.15,2013-10-26 11:35:00,
2013-10-26 07:45:00,48.6,41.4,29.64,West,265,12.0,14.0,76,0.00,,,0.07,Wunderground v.1.15,2013-10-26 11:45:00,
2013-10-26 07:50:00,48.5,40.9,29.65,WSW,254,12.0,12.0,75,0.00,,,0.07,Wunderground v.1.15,2013-10-26 11:50:00,
2013-10-26 07:55:00,48.5,41.6,29.64,West,264,12.0,12.0,77,0.00,,,0.07,Wunderground v.1.15,2013-10-26 11:55:00,
2013-10-26 08:00:00,48.6,42.0,29.65,WSW,252,12.0,13.0,78,0.00,,,0.07,Wunderground v.1.15,2013-10-26 12:00:00,
2013-10-26 08:05:00,48.6,41.7,29.65,West,269,12.0,14.0,77,0.00,,,0.07,Wunderground v.1.15,2013-10-26 12:05:00,
2013-10-26 08:15:00,48.6,41.0,29.65,West,264,14.0,19.0,75,0.00,,,0.07,Wunderground v.1.15,2013-10-26 12:15:00,
2013-10-26 08:20:00,48.6,41.7,29.65,WSW,256,14.0,16.0,77,0.00,,,0.07,Wunderground v.1.15,2013-10-26 12:20:00,
2013-10-26 08:25:00,48.6,40.7,29.65,West,267,15.0,20.0,74,0.00,,,0.07,Wunderground v.1.15,2013-10-26 12:25:00,
2013-10-26 08:30:00,48.6,41.0,29.66,WSW,247,14.0,14.0,75,0.00,,,0.07,Wunderground v.1.15,2013-10-26 12:30:00,
2013-10-26 08:35:00,48.6,41.4,29.65,WSW,246,14.0,15.0,76,0.00,,,0.07,Wunderground v.1.15,2013-10-26 12:35:00,
2013-10-26 08:40:00,48.7,41.1,29.66,WSW,248,16.0,16.0,75,0.00,,,0.07,Wunderground v.1.15,2013-10-26 12:40:00,
2013-10-26 08:50:00,48.1,41.2,29.66,WSW,252,19.0,19.0,77,0.00,,,0.07,Wunderground v.1.15,2013-10-26 12:50:00,
2013-10-26 08:55:00,47.9,40.0,29.67,WSW,252,18.0,19.0,74,0.00,,,0.07,Wunderground v.1.15,2013-10-26 12:55:00,
2013-10-26 09:00:00,47.8,40.6,29.67,WSW,248,18.0,18.0,76,0.00,,,0.07,Wunderground v.1.15,2013-10-26 13:00:00,
2013-10-26 09:05:00,47.6,39.7,29.67,West,263,18.0,18.0,74,0.00,,,0.07,Wunderground v.1.15,2013-10-26 13:05:00,
2013-10-26 09:15:00,47.4,40.2,29.67,West,271,17.0,18.0,76,0.00,,,0.07,Wunderground v.1.15,2013-10-26 13:15:00,
2013-10-26 09:20:00,47.3,39.8,29.67,WSW,255,17.0,17.0,75,0.00,,,0.07,Wunderground v.1.15,2013-10-26 13:20:00,
2013-10-26 09:25:00,47.3,40.5,29.68,WSW,255,17.0,17.0,77,0.00,,,0.07,Wunderground v.1.15,2013-10-26 13:25:00,
2013-10-26 09:30:00,47.0,40.8,29.68,West,275,16.0,16.0,79,0.00,,,0.07,Wunderground v.1.15,2013-10-26 13:30:00,
2013-10-26 09:35:00,46.6,39.8,29.68,West,264,16.0,16.0,77,0.00,,,0.07,Wunderground v.1.15,2013-10-26 13:35:00,
2013-10-26 09:40:00,46.2,40.4,29.68,West,275,15.0,15.0,80,0.00,,,0.07,Wunderground v.1.15,2013-10-26 13:40:00,
2013-10-26 09:45:00,46.4,39.9,29.69,West,260,14.0,16.0,78,0.00,,,0.07,Wunderground v.1.15,2013-10-26 13:45:00,
2013-10-26 09:55:00,46.6,38.8,29.69,WSW,257,16.0,20.0,74,0.00,,,0.07,Wunderground v.1.15,2013-10-26 13:55:00,
2013-10-26 10:00:00,46.4,38.9,29.69,West,271,17.0,17.0,75,0.00,,,0.07,Wunderground v.1.15,2013-10-26 14:00:00,
2013-10-26 10:05:00,46.4,38.6,29.69,West,267,17.0,17.0,74,0.00,,,0.07,Wunderground v.1.15,2013-10-26 14:05:00,
2013-10-26 10:15:00,46.2,37.7,29.70,West,267,19.0,20.0,72,0.00,,,0.07,Wunderground v.1.15,2013-10-26 14:15:00,
2013-10-26 10:25:00,45.9,36.3,29.70,West,277,19.0,28.0,69,0.00,,,0.07,Wunderground v.1.15,2013-10-26 14:25:00,
2013-10-26 10:30:00,45.7,37.2,29.70,West,268,18.0,18.0,72,0.00,,,0.07,Wunderground v.1.15,2013-10-26 14:30:00,
2013-10-26 10:35:00,45.6,37.1,29.70,WSW,244,17.0,19.0,72,0.00,,,0.07,Wunderground v.1.15,2013-10-26 14:35:00,
2013-10-26 10:40:00,45.3,36.4,29.71,WSW,255,18.0,18.0,71,0.00,,,0.07,Wunderground v.1.15,2013-10-26 14:40:00,
2013-10-26 10:45:00,45.2,37.4,29.71,West,264,17.0,21.0,74,0.00,,,0.07,Wunderground v.1.15,2013-10-26 14:45:00,
2013-10-26 10:50:00,45.0,36.9,29.71,WSW,257,17.0,19.0,73,0.00,,,0.07,Wunderground v.1.15,2013-10-26 14:50:00,
2013-10-26 11:00:00,45.1,36.6,29.71,West,259,17.0,17.0,72,0.00,,,0.07,Wunderground v.1.15,2013-10-26 15:00:00,
2013-10-26 11:05:00,45.0,36.9,29.71,West,271,17.0,17.0,73,0.00,,,0.07,Wunderground v.1.15,2013-10-26 15:05:00,
2013-10-26 11:15:00,45.0,37.6,29.71,West,264,14.0,19.0,75,0.00,,,0.07,Wunderground v.1.15,2013-10-26 15:15:00,
2013-10-26 11:20:00,45.0,37.6,29.72,West,267,13.0,13.0,75,0.00,,,0.07,Wunderground v.1.15,2013-10-26 15:20:00,
2013-10-26 11:30:00,44.8,37.4,29.72,West,268,14.0,19.0,75,0.00,,,0.07,Wunderground v.1.15,2013-10-26 15:30:00,
2013-10-26 11:35:00,44.8,36.7,29.73,West,259,15.0,19.0,73,0.00,,,0.07,Wunderground v.1.15,2013-10-26 15:35:00,
2013-10-26 11:40:00,44.7,36.6,29.73,WSW,250,16.0,19.0,73,0.00,,,0.07,Wunderground v.1.15,2013-10-26 15:40:00,
2013-10-26 11:45:00,44.8,37.4,29.73,West,268,16.0,19.0,75,0.00,,,0.07,Wunderground v.1.15,2013-10-26 15:45:00,
2013-10-26 11:50:00,44.7,36.9,29.73,West,261,14.0,14.0,74,0.00,,,0.07,Wunderground v.1.15,2013-10-26 15:50:00,
2013-10-26 12:00:00,44.7,37.3,29.74,WSW,258,11.0,15.0,75,0.00,,,0.07,Wunderground v.1.15,2013-10-26 16:00:00,
2013-10-26 12:05:00,44.7,36.9,29.74,West,266,12.0,15.0,74,0.00,,,0.07,Wunderground v.1.15,2013-10-26 16:05:00,
2013-10-26 12:15:00,44.6,36.5,29.74,WSW,250,14.0,15.0,73,0.00,,,0.07,Wunderground v.1.15,2013-10-26 16:15:00,
2013-10-26 12:20:00,44.7,37.3,29.74,WSW,251,13.0,13.0,75,0.00,,,0.07,Wunderground v.1.15,2013-10-26 16:20:00,
2013-10-26 12:25:00,44.8,36.0,29.75,West,265,14.0,14.0,71,0.00,,,0.07,Wunderground v.1.15,2013-10-26 16:25:00,
2013-10-26 12:30:00,44.9,37.1,29.75,WSW,254,14.0,15.0,74,0.00,,,0.07,Wunderground v.1.15,2013-10-26 16:30:00,
2013-10-26 12:40:00,45.0,37.2,29.75,WSW,248,16.0,20.0,74,0.00,,,0.07,Wunderground v.1.15,2013-10-26 16:40:00,
2013-10-26 12:45:00,44.9,37.8,29.76,West,267,15.0,20.0,76,0.00,,,0.07,Wunderground v.1.15,2013-10-26 16:45:00,
2013-10-26 12:50:00,45.0,36.9,29.76,West,263,14.0,14.0,73,0.00,,,0.07,Wunderground v.1.15,2013-10-26 16:50:00,
2013-10-26 12:55:00,45.0,36.5,29.76,WSW,255,15.0,15.0,72,0.00,,,0.07,Wunderground v.1.15,2013-10-26 16:55:00,
2013-10-26 13:00:00,44.7,37.3,29.76,West,276,15.0,15.0,75,0.00,,,0.07,Wunderground v.1.15,2013-10-26 17:00:00,
2013-10-26 13:05:00,44.9,37.1,29.76,WSW,253,15.0,15.0,74,0.00,,,0.07,Wunderground v.1.15,2013-10-26 17:05:00,
2013-10-26 13:15:00,44.7,35.5,29.76,West,273,14.0,14.0,70,0.00,,,0.07,Wunderground v.1.15,2013-10-26 17:15:00,
2013-10-26 13:20:00,44.9,36.1,29.77,West,266,14.0,14.0,71,0.00,,,0.07,Wunderground v.1.15,2013-10-26 17:20:00,
2013-10-26 13:25:00,44.7,36.6,29.76,WSW,250,15.0,19.0,73,0.00,,,0.07,Wunderground v.1.15,2013-10-26 17:25:00,
2013-10-26 13:30:00,44.7,36.6,29.77,West,267,16.0,16.0,73,0.00,,,0.07,Wunderground v.1.15,2013-10-26 17:30:00,
2013-10-26 13:35:00,44.7,37.3,29.77,West,269,16.0,16.0,75,0.00,,,0.07,Wunderground v.1.15,2013-10-26 17:35:00,
2013-10-26 13:45:00,44.7,37.3,29.77,West,269,16.0,16.0,75,0.00,,,0.07,Wunderground v.1.15,2013-10-26 17:45:00,
2013-10-26 13:50:00,44.6,36.8,29.77,West,267,15.0,15.0,74,0.00,,,0.07,Wunderground v.1.15,2013-10-26 17:50:00,
2013-10-26 13:55:00,44.9,37.1,29.77,WSW,252,14.0,15.0,74,0.00,,,0.07,Wunderground v.1.15,2013-10-26 17:55:00,
2013-10-26 14:00:00,44.7,36.6,29.77,West,264,14.0,14.0,73,0.00,,,0.07,Wunderground v.1.15,2013-10-26 18:00:00,
2013-10-26 14:05:00,44.7,38.3,29.77,WSW,246,15.0,19.0,78,0.00,,,0.07,Wunderground v.1.15,2013-10-26 18:05:00,
2013-10-26 14:15:00,43.2,37.8,29.78,SW,224,18.0,21.0,81,0.00,,,0.07,Wunderground v.1.15,2013-10-26 18:15:00,
2013-10-26 14:20:00,44.0,36.6,29.78,WSW,252,18.0,18.0,75,0.00,,,0.07,Wunderground v.1.15,2013-10-26 18:20:00,
2013-10-26 14:25:00,44.3,36.9,29.78,WSW,254,19.0,19.0,75,0.00,,,0.07,Wunderground v.1.15,2013-10-26 18:25:00,
2013-10-26 14:30:00,44.5,37.1,29.78,WSW,252,18.0,18.0,75,0.00,,,0.07,Wunderground v.1.15,2013-10-26 18:30:00,
2013-10-26 14:35:00,44.3,38.5,29.78,WSW,241,17.0,18.0,80,0.00,,,0.07,Wunderground v.1.15,2013-10-26 18:35:00,
2013-10-26 14:40:00,43.3,38.5,29.79,WSW,254,15.0,15.0,83,0.00,,,0.07,Wunderground v.1.15,2013-10-26 18:40:00,
2013-10-26 14:50:00,44.3,37.5,29.79,WSW,252,18.0,19.0,77,0.00,,,0.07,Wunderground v.1.15,2013-10-26 18:50:00,
2013-10-26 14:55:00,44.4,37.3,29.79,West,273,17.0,19.0,76,0.00,,,0.07,Wunderground v.1.15,2013-10-26 18:55:00,
2013-10-26 15:00:00,44.3,37.5,29.80,West,268,16.0,18.0,77,0.00,,,0.07,Wunderground v.1.15,2013-10-26 19:00:00,
2013-10-26 15:05:00,44.4,38.0,29.80,West,263,16.0,18.0,78,0.00,,,0.07,Wunderground v.1.15,2013-10-26 19:05:00,
2013-10-26 15:15:00,44.6,37.8,29.80,WSW,246,18.0,21.0,77,0.00,,,0.07,Wunderground v.1.15,2013-10-26 19:15:00,
2013-10-26 15:20:00,44.6,37.5,29.80,West,265,18.0,18.0,76,0.00,,,0.07,Wunderground v.1.15,2013-10-26 19:20:00,
2013-10-26 15:25:00,44.8,37.7,29.80,West,261,17.0,18.0,76,0.00,,,0.07,Wunderground v.1.15,2013-10-26 19:25:00,
2013-10-26 15:30:00,44.9,38.1,29.80,West,270,19.0,22.0,77,0.00,,,0.07,Wunderground v.1.15,2013-10-26 19:30:00,
2013-10-26 15:35:00,44.6,37.8,29.80,West,263,20.0,22.0,77,0.00,,,0.07,Wunderground v.1.15,2013-10-26 19:35:00,
2013-10-26 15:45:00,44.6,38.2,29.80,West,268,18.0,19.0,78,0.00,,,0.07,Wunderground v.1.15,2013-10-26 19:45:00,
2013-10-26 15:50:00,44.6,37.8,29.81,West,263,18.0,21.0,77,0.00,,,0.07,Wunderground v.1.15,2013-10-26 19:50:00,
2013-10-26 16:00:00,44.4,37.0,29.81,West,271,19.0,19.0,75,0.00,,,0.07,Wunderground v.1.15,2013-10-26 20:00:00,
2013-10-26 16:05:00,44.5,38.4,29.81,WSW,252,18.0,20.0,79,0.00,,,0.07,Wunderground v.1.15,2013-10-26 20:05:00,
2013-10-26 16:15:00,44.6,39.8,29.82,West,263,15.0,16.0,83,0.00,,,0.07,Wunderground v.1.15,2013-10-26 20:15:00,
2013-10-26 16:20:00,44.7,38.9,29.82,West,266,16.0,25.0,80,0.00,,,0.07,Wunderground v.1.15,2013-10-26 20:20:00,
2013-10-26 16:30:00,44.6,38.8,29.83,West,265,20.0,20.0,80,0.00,,,0.07,Wunderground v.1.15,2013-10-26 20:30:00,
2013-10-26 16:35:00,44.6,37.8,29.83,West,265,21.0,21.0,77,0.00,,,0.07,Wunderground v.1.15,2013-10-26 20:35:00,
2013-10-26 16:40:00,44.6,38.2,29.83,West,260,19.0,20.0,78,0.00,,,0.07,Wunderground v.1.15,2013-10-26 20:40:00,
2013-10-26 16:45:00,44.7,38.3,29.83,West,263,17.0,20.0,78,0.00,,,0.07,Wunderground v.1.15,2013-10-26 20:45:00,
2013-10-26 16:50:00,44.7,38.9,29.83,West,273,16.0,22.0,80,0.00,,,0.07,Wunderground v.1.15,2013-10-26 20:50:00,
2013-10-26 17:00:00,44.3,38.8,29.84,West,271,16.0,16.0,81,0.00,,,0.07,Wunderground v.1.15,2013-10-26 21:00:00,
2013-10-26 17:05:00,44.5,39.0,29.84,West,267,16.0,21.0,81,0.00,,,0.07,Wunderground v.1.15,2013-10-26 21:05:00,
2013-10-26 17:15:00,43.6,38.2,29.85,West,261,18.0,21.0,81,0.00,,,0.07,Wunderground v.1.15,2013-10-26 21:15:00,
2013-10-26 17:20:00,44.3,39.2,29.85,West,267,18.0,19.0,82,0.00,,,0.07,Wunderground v.1.15,2013-10-26 21:20:00,
2013-10-26 17:25:00,44.0,38.5,29.86,West,264,16.0,19.0,81,0.00,,,0.07,Wunderground v.1.15,2013-10-26 21:25:00,
2013-10-26 17:35:00,42.5,37.1,29.88,WNW,291,13.0,16.0,81,0.00,,,0.07,Wunderground v.1.15,2013-10-26 21:35:00,
2013-10-26 17:40:00,40.8,36.6,29.88,WNW,297,11.0,13.0,85,0.00,,,0.07,Wunderground v.1.15,2013-10-26 21:40:00,
2013-10-26 17:45:00,40.4,36.2,29.88,WNW,300,11.0,13.0,85,0.00,,,0.07,Wunderground v.1.15,2013-10-26 21:45:00,
2013-10-26 17:55:00,42.0,38.1,29.88,West,277,12.0,13.0,86,0.00,,,0.08,Wunderground v.1.15,2013-10-26 21:55:00,
2013-10-26 18:00:00,41.7,38.1,29.88,WSW,258,14.0,19.0,87,0.00,,,0.08,Wunderground v.1.15,2013-10-26 22:00:00,
2013-10-26 18:05:00,41.1,38.1,29.89,West,268,16.0,19.0,89,0.00,,,0.08,Wunderground v.1.15,2013-10-26 22:05:00,
2013-10-26 18:15:00,41.2,38.2,29.89,WNW,298,12.0,16.0,89,0.00,,,0.08,Wunderground v.1.15,2013-10-26 22:15:00,
2013-10-26 18:20:00,41.1,37.8,29.90,WNW,285,12.0,16.0,88,0.00,,,0.09,Wunderground v.1.15,2013-10-26 22:20:00,
2013-10-26 18:25:00,41.2,37.3,29.90,WNW,292,14.0,16.0,86,0.00,,,0.09,Wunderground v.1.15,2013-10-26 22:25:00,
2013-10-26 18:30:00,40.5,36.3,29.90,WNW,300,11.0,11.0,85,0.00,,,0.09,Wunderground v.1.15,2013-10-26 22:30:00,
2013-10-26 18:40:00,42.2,37.7,29.91,NW,317,12.0,12.0,84,0.00,,,0.09,Wunderground v.1.15,2013-10-26 22:40:00,
2013-10-26 18:45:00,41.1,36.3,29.91,NW,326,11.0,12.0,83,0.00,,,0.09,Wunderground v.1.15,2013-10-26 22:45:00,
2013-10-26 18:50:00,41.5,37.0,29.91,West,278,8.0,13.0,84,0.00,,,0.09,Wunderground v.1.15,2013-10-26 22:50:00,
2013-10-26 18:55:00,43.2,38.1,29.91,WNW,288,11.0,14.0,82,0.00,,,0.09,Wunderground v.1.15,2013-10-26 22:55:00,
2013-10-26 19:00:00,43.7,37.6,29.91,West,273,14.0,14.0,79,0.00,,,0.09,Wunderground v.1.15,2013-10-26 23:00:00,
2013-10-26 19:05:00,43.7,36.6,29.91,WSW,249,15.0,15.0,76,0.00,,,0.09,Wunderground v.1.15,2013-10-26 23:05:00,
2013-10-26 19:15:00,43.6,35.9,29.92,West,269,15.0,16.0,74,0.00,,,0.09,Wunderground v.1.15,2013-10-26 23:15:00,
2013-10-26 19:20:00,43.6,35.5,29.92,West,270,15.0,15.0,73,0.00,,,0.09,Wunderground v.1.15,2013-10-26 23:20:00,
2013-10-26 19:25:00,43.6,36.2,29.92,WNW,292,14.0,15.0,75,0.00,,,0.09,Wunderground v.1.15,2013-10-26 23:25:00,
2013-10-26 19:30:00,43.5,36.1,29.92,West,263,13.0,13.0,75,0.00,,,0.09,Wunderground v.1.15,2013-10-26 23:30:00,
2013-10-26 19:35:00,43.5,36.1,29.92,West,264,12.0,13.0,75,0.00,,,0.09,Wunderground v.1.15,2013-10-26 23:35:00,
2013-10-26 19:45:00,43.6,35.9,29.93,West,275,12.0,13.0,74,0.00,,,0.09,Wunderground v.1.15,2013-10-26 23:45:00,
2013-10-26 19:50:00,43.5,36.4,29.93,West,275,13.0,13.0,76,0.00,,,0.09,Wunderground v.1.15,2013-10-26 23:50:00,
2013-10-26 19:55:00,43.4,36.0,29.93,West,261,13.0,14.0,75,0.00,,,0.09,Wunderground v.1.15,2013-10-26 23:55:00,
2013-10-26 20:00:00,43.5,36.1,29.94,West,271,14.0,15.0,75,0.00,,,0.09,Wunderground v.1.15,2013-10-27 00:00:00,
2013-10-26 20:05:00,43.5,36.1,29.94,West,270,14.0,15.0,75,0.00,,,0.09,Wunderground v.1.15,2013-10-27 00:05:00,
2013-10-26 20:15:00,43.3,36.2,29.94,West,267,16.0,16.0,76,0.00,,,0.09,Wunderground v.1.15,2013-10-27 00:15:00,
2013-10-26 20:20:00,43.3,36.2,29.95,West,272,15.0,15.0,76,0.00,,,0.09,Wunderground v.1.15,2013-10-27 00:20:00,
2013-10-26 20:25:00,43.3,36.9,29.95,West,269,13.0,15.0,78,0.00,,,0.09,Wunderground v.1.15,2013-10-27 00:25:00,
2013-10-26 20:30:00,43.3,36.2,29.95,WNW,282,14.0,14.0,76,0.00,,,0.09,Wunderground v.1.15,2013-10-27 00:30:00,
2013-10-26 20:35:00,43.2,35.8,29.95,West,269,14.0,14.0,75,0.00,,,0.09,Wunderground v.1.15,2013-10-27 00:35:00,
2013-10-26 20:40:00,43.2,35.5,29.95,West,267,13.0,13.0,74,0.00,,,0.09,Wunderground v.1.15,2013-10-27 00:40:00,
2013-10-26 20:50:00,43.2,35.5,29.96,West,265,14.0,14.0,74,0.00,,,0.09,Wunderground v.1.15,2013-10-27 00:50:00,
2013-10-26 20:55:00,43.1,35.7,29.96,WSW,248,14.0,16.0,75,0.00,,,0.09,Wunderground v.1.15,2013-10-27 00:55:00,
2013-10-26 21:00:00,43.2,36.1,29.96,WSW,250,15.0,15.0,76,0.00,,,0.09,Wunderground v.1.15,2013-10-27 01:00:00,
2013-10-26 21:05:00,42.9,35.2,29.96,WSW,257,14.0,15.0,74,0.00,,,0.09,Wunderground v.1.15,2013-10-27 01:05:00,
2013-10-26 21:15:00,42.7,35.3,29.96,West,269,14.0,14.0,75,0.00,,,0.09,Wunderground v.1.15,2013-10-27 01:15:00,
2013-10-26 21:25:00,42.9,36.5,29.97,West,265,13.0,13.0,78,0.00,,,0.09,Wunderground v.1.15,2013-10-27 01:25:00,
2013-10-26 21:30:00,42.8,35.8,29.97,West,272,13.0,13.0,76,0.00,,,0.09,Wunderground v.1.15,2013-10-27 01:30:00,
2013-10-26 21:35:00,42.7,36.0,29.96,WSW,245,13.0,13.0,77,0.00,,,0.09,Wunderground v.1.15,2013-10-27 01:35:00,
2013-10-26 21:40:00,42.7,35.7,29.97,West,273,12.0,12.0,76,0.00,,,0.09,Wunderground v.1.15,2013-10-27 01:40:00,
2013-10-26 21:45:00,42.6,35.6,29.97,West,272,12.0,13.0,76,0.00,,,0.09,Wunderground v.1.15,2013-10-27 01:45:00,
2013-10-26 21:55:00,42.7,35.7,29.97,West,276,12.0,13.0,76,0.00,,,0.09,Wunderground v.1.15,2013-10-27 01:55:00,
2013-10-26 22:00:00,42.7,36.3,29.98,West,276,12.0,12.0,78,0.00,,,0.09,Wunderground v.1.15,2013-10-27 02:00:00,
2013-10-26 22:05:00,42.5,35.8,29.98,West,268,12.0,14.0,77,0.00,,,0.09,Wunderground v.1.15,2013-10-27 02:05:00,
2013-10-26 22:15:00,42.5,34.1,29.98,West,268,14.0,14.0,72,0.00,,,0.09,Wunderground v.1.15,2013-10-27 02:15:00,
2013-10-26 22:25:00,42.4,35.0,29.98,West,263,13.0,14.0,75,0.00,,,0.09,Wunderground v.1.15,2013-10-27 02:25:00,
2013-10-26 22:30:00,42.4,35.0,29.98,WSW,258,14.0,14.0,75,0.00,,,0.09,Wunderground v.1.15,2013-10-27 02:30:00,
2013-10-26 22:35:00,42.3,34.9,29.99,West,269,13.0,14.0,75,0.00,,,0.09,Wunderground v.1.15,2013-10-27 02:35:00,
2013-10-26 22:45:00,42.2,35.5,29.99,West,263,10.0,11.0,77,0.00,,,0.09,Wunderground v.1.15,2013-10-27 02:45:00,
2013-10-26 22:50:00,42.4,35.0,29.98,WNW,298,11.0,11.0,75,0.00,,,0.09,Wunderground v.1.15,2013-10-27 02:50:00,
2013-10-26 22:55:00,42.3,34.9,29.98,West,276,11.0,11.0,75,0.00,,,0.09,Wunderground v.1.15,2013-10-27 02:55:00,
2013-10-26 23:00:00,42.2,34.5,29.98,West,265,11.0,12.0,74,0.00,,,0.09,Wunderground v.1.15,2013-10-27 03:00:00,
2013-10-26 23:10:00,42.4,35.4,29.98,West,273,11.0,11.0,76,0.00,,,0.09,Wunderground v.1.15,2013-10-27 03:10:00,
2013-10-26 23:15:00,42.4,35.0,29.98,West,265,10.0,11.0,75,0.00,,,0.09,Wunderground v.1.15,2013-10-27 03:15:00,
2013-10-26 23:20:00,42.5,35.1,29.98,WNW,298,9.0,9.0,75,0.00,,,0.09,Wunderground v.1.15,2013-10-27 03:20:00,
2013-10-26 23:25:00,42.2,34.2,29.99,West,277,9.0,9.0,73,0.00,,,0.09,Wunderground v.1.15,2013-10-27 03:25:00,
2013-10-26 23:35:00,42.4,36.0,29.98,West,268,11.0,12.0,78,0.00,,,0.09,Wunderground v.1.15,2013-10-27 03:35:00,
2013-10-26 23:40:00,42.6,36.5,29.98,West,281,13.0,13.0,79,0.00,,,0.09,Wunderground v.1.15,2013-10-27 03:40:00,
2013-10-26 23:45:00,42.4,35.4,29.98,West,264,13.0,13.0,76,0.00,,,0.09,Wunderground v.1.15,2013-10-27 03:45:00,
2013-10-26 23:50:00,42.3,34.6,29.99,West,268,13.0,13.0,74,0.00,,,0.09,Wunderground v.1.15,2013-10-27 03:50:00,
2013-10-26 23:55:00,42.3,34.6,29.99,West,265,12.0,13.0,74,0.00,,,0.09,Wunderground v.1.15,2013-10-27 03:55:00,